Location: Charlottesville
(38.0290°N, 78.4770°W)
Time: 13:59:35
(UTC-04:00)

N. Korean satellite - Pass Details

Date: 09 October 2017
Orbit: 459 x 517 km, 97.2° (Epoch: 19 October)

Event Time Altitude Azimuth Distance (km) Brightness Sun altitude
Rises 19:44:57 0° 184° (S) 2,575 10.3 -12.7°
Reaches altitude 10° 19:47:09 10° 193° (SSW) 1,687 9.4 -13.2°
Maximum altitude 19:50:32 37° 262° (W) 781 8.3 -13.8°
Drops below altitude 10° 19:53:53 10° 331° (NNW) 1,669 9.7 -14.5°
Sets 19:56:03 0° 340° (NNW) 2,542 10.5 -14.9°
